User: anonymous   Login
Location: Ertinghausen
(51.6624°N, 9.7874°E)
Time: 13:09:56
(UTC+00:00)
Language:

Nadezhda 1 Rocket - Orbit

View from above orbital plane
View from above orbital plane
View from above satellite
View from above satellite

Ground track
Ground track

The orbit data is extracted from the following two-line orbital elements,

1 20104U 89050B   24205.11292616  .00000083  00000-0  66627-4 0  9992
2 20104  82.9547  47.1135 0044724 120.3340 240.2252 13.77483824761322
Epoch (UTC): 23 July 2024 02:42:36
Eccentricity: 0.0044724
inclination: 82.9547°
perigee height: 940 km
apogee height: 1006 km
right ascension of ascending node: 47.1135°
argument of perigee: 120.3340°
revolutions per day: 13.77483824
mean anomaly at epoch: 240.2252°
orbit number at epoch: 76132

The dashed part of the orbit path shows where the satellite is in the earth's shadow,  

DLR